Year,Month,Day,Hour,Minute,Value (Times are PST for windgust in km/hr)
2005,11,03,00,00,3.20
2005,11,03,00,01,1.60
2005,11,03,00,02,0.00
2005,11,03,00,03,1.60
2005,11,03,00,04,1.60
2005,11,03,00,05,1.60
2005,11,03,00,06,1.60
2005,11,03,00,07,3.20
2005,11,03,00,08,3.20
2005,11,03,00,09,3.20
2005,11,03,00,10,3.20
2005,11,03,00,11,1.60
2005,11,03,00,12,0.00
2005,11,03,00,13,1.60
2005,11,03,00,14,3.20
2005,11,03,00,15,1.60
2005,11,03,00,16,1.60
2005,11,03,00,17,1.60
2005,11,03,00,18,0.00
2005,11,03,00,19,0.00
2005,11,03,00,20,1.60
2005,11,03,00,21,1.60
2005,11,03,00,22,1.60
2005,11,03,00,23,1.60
2005,11,03,00,24,3.20
2005,11,03,00,25,1.60
2005,11,03,00,26,3.20
2005,11,03,00,27,3.20
2005,11,03,00,28,3.20
2005,11,03,00,29,4.80
2005,11,03,00,30,3.20
2005,11,03,00,31,4.80
2005,11,03,00,32,4.80
2005,11,03,00,33,6.40
2005,11,03,00,34,4.80
2005,11,03,00,35,3.20
2005,11,03,00,36,1.60
2005,11,03,00,37,1.60
2005,11,03,00,38,1.60
2005,11,03,00,39,3.20
2005,11,03,00,40,3.20
2005,11,03,00,41,3.20
2005,11,03,00,42,1.60
2005,11,03,00,43,3.20
2005,11,03,00,44,3.20
2005,11,03,00,45,1.60
2005,11,03,00,46,4.80
2005,11,03,00,47,3.20
2005,11,03,00,48,4.80
2005,11,03,00,49,1.60
2005,11,03,00,50,3.20
2005,11,03,00,51,1.60
2005,11,03,00,52,3.20
2005,11,03,00,53,1.60
2005,11,03,00,54,1.60
2005,11,03,00,55,3.20
2005,11,03,00,56,4.80
2005,11,03,00,57,3.20
2005,11,03,00,58,4.80
2005,11,03,00,59,3.20
2005,11,03,01,00,3.20
2005,11,03,01,01,6.40
2005,11,03,01,02,3.20
2005,11,03,01,03,1.60
2005,11,03,01,04,0.00
2005,11,03,01,05,1.60
2005,11,03,01,06,1.60
2005,11,03,01,07,3.20
2005,11,03,01,08,3.20
2005,11,03,01,09,3.20
2005,11,03,01,10,3.20
2005,11,03,01,11,1.60
2005,11,03,01,12,0.00
2005,11,03,01,13,1.60
2005,11,03,01,14,0.00
2005,11,03,01,15,1.60
2005,11,03,01,16,1.60
2005,11,03,01,17,1.60
2005,11,03,01,18,0.00
2005,11,03,01,19,0.00
2005,11,03,01,20,1.60
2005,11,03,01,21,1.60
2005,11,03,01,22,1.60
2005,11,03,01,23,1.60
2005,11,03,01,24,0.00
2005,11,03,01,25,1.60
2005,11,03,01,26,1.60
2005,11,03,01,27,1.60
2005,11,03,01,28,0.00
2005,11,03,01,29,1.60
2005,11,03,01,30,1.60
2005,11,03,01,31,3.20
2005,11,03,01,32,3.20
2005,11,03,01,33,1.60
2005,11,03,01,34,3.20
2005,11,03,01,35,1.60
2005,11,03,01,36,1.60
2005,11,03,01,37,1.60
2005,11,03,01,38,3.20
2005,11,03,01,39,3.20
2005,11,03,01,40,3.20
2005,11,03,01,41,1.60
2005,11,03,01,42,3.20
2005,11,03,01,43,3.20
2005,11,03,01,44,3.20
2005,11,03,01,45,4.80
2005,11,03,01,46,6.40
2005,11,03,01,47,3.20
2005,11,03,01,48,3.20
2005,11,03,01,49,3.20
2005,11,03,01,50,1.60
2005,11,03,01,51,1.60
2005,11,03,01,52,1.60
2005,11,03,01,53,1.60
2005,11,03,01,54,0.00
2005,11,03,01,55,1.60
2005,11,03,01,56,1.60
2005,11,03,01,57,1.60
2005,11,03,01,58,0.00
2005,11,03,01,59,1.60
2005,11,03,02,00,1.60
2005,11,03,02,01,3.20
2005,11,03,02,02,1.60
2005,11,03,02,03,1.60
2005,11,03,02,04,1.60
2005,11,03,02,05,1.60
2005,11,03,02,06,1.60
2005,11,03,02,07,1.60
2005,11,03,02,08,1.60
2005,11,03,02,09,1.60
2005,11,03,02,10,0.00
2005,11,03,02,11,0.00
2005,11,03,02,12,1.60
2005,11,03,02,13,3.20
2005,11,03,02,14,1.60
2005,11,03,02,15,0.00
2005,11,03,02,16,1.60
2005,11,03,02,17,0.00
2005,11,03,02,18,0.00
2005,11,03,02,19,0.00
2005,11,03,02,20,0.00
2005,11,03,02,21,1.60
2005,11,03,02,22,1.60
2005,11,03,02,23,3.20
2005,11,03,02,24,3.20
2005,11,03,02,25,3.20
2005,11,03,02,26,3.20
2005,11,03,02,27,1.60
2005,11,03,02,28,1.60
2005,11,03,02,29,1.60
2005,11,03,02,30,1.60
2005,11,03,02,31,0.00
2005,11,03,02,32,1.60
2005,11,03,02,33,1.60
2005,11,03,02,34,0.00
2005,11,03,02,35,0.00
2005,11,03,02,36,0.00
2005,11,03,02,37,0.00
2005,11,03,02,38,1.60
2005,11,03,02,39,3.20
2005,11,03,02,40,3.20
2005,11,03,02,41,4.80
2005,11,03,02,42,3.20
2005,11,03,02,43,3.20
2005,11,03,02,44,3.20
2005,11,03,02,45,1.60
2005,11,03,02,46,1.60
2005,11,03,02,47,0.00
2005,11,03,02,48,1.60
2005,11,03,02,49,0.00
2005,11,03,02,50,1.60
2005,11,03,02,51,3.20
2005,11,03,02,52,3.20
2005,11,03,02,53,0.00
2005,11,03,02,54,1.60
2005,11,03,02,55,1.60
2005,11,03,02,56,0.00
2005,11,03,02,57,0.00
2005,11,03,02,58,0.00
2005,11,03,02,59,1.60
2005,11,03,03,00,3.20
2005,11,03,03,01,1.60
2005,11,03,03,02,1.60
2005,11,03,03,03,1.60
2005,11,03,03,04,3.20
2005,11,03,03,05,1.60
2005,11,03,03,06,3.20
2005,11,03,03,07,1.60
2005,11,03,03,08,1.60
2005,11,03,03,09,1.60
2005,11,03,03,10,1.60
2005,11,03,03,11,1.60
2005,11,03,03,12,3.20
2005,11,03,03,13,3.20
2005,11,03,03,14,3.20
2005,11,03,03,15,4.80
2005,11,03,03,16,3.20
2005,11,03,03,17,3.20
2005,11,03,03,18,4.80
2005,11,03,03,19,4.80
2005,11,03,03,20,4.80
2005,11,03,03,21,3.20
2005,11,03,03,22,3.20
2005,11,03,03,23,3.20
2005,11,03,03,24,1.60
2005,11,03,03,25,1.60
2005,11,03,03,26,3.20
2005,11,03,03,27,3.20
2005,11,03,03,28,4.80
2005,11,03,03,29,3.20
2005,11,03,03,30,4.80
2005,11,03,03,31,3.20
2005,11,03,03,32,0.00
2005,11,03,03,33,0.00
2005,11,03,03,34,1.60
2005,11,03,03,35,1.60
2005,11,03,03,36,1.60
2005,11,03,03,37,1.60
2005,11,03,03,38,1.60
2005,11,03,03,39,0.00
2005,11,03,03,40,0.00
2005,11,03,03,41,1.60
2005,11,03,03,42,3.20
2005,11,03,03,43,3.20
2005,11,03,03,44,4.80
2005,11,03,03,45,3.20
2005,11,03,03,46,1.60
2005,11,03,03,47,3.20
2005,11,03,03,48,3.20
2005,11,03,03,49,4.80
2005,11,03,03,50,1.60
2005,11,03,03,51,1.60
2005,11,03,03,52,1.60
2005,11,03,03,53,1.60
2005,11,03,03,54,1.60
2005,11,03,03,55,3.20
2005,11,03,03,56,3.20
2005,11,03,03,57,3.20
2005,11,03,03,58,3.20
2005,11,03,03,59,3.20
2005,11,03,04,00,1.60
2005,11,03,04,01,3.20
2005,11,03,04,02,3.20
2005,11,03,04,03,3.20
2005,11,03,04,04,3.20
2005,11,03,04,05,4.80
2005,11,03,04,06,4.80
2005,11,03,04,07,4.80
2005,11,03,04,08,3.20
2005,11,03,04,09,4.80
2005,11,03,04,10,6.40
2005,11,03,04,11,4.80
2005,11,03,04,12,4.80
2005,11,03,04,13,8.10
2005,11,03,04,14,4.80
2005,11,03,04,15,8.10
2005,11,03,04,16,6.40
2005,11,03,04,17,8.10
2005,11,03,04,18,8.10
2005,11,03,04,19,16.10
2005,11,03,04,20,14.50
2005,11,03,04,21,9.60
2005,11,03,04,22,8.10
2005,11,03,04,23,8.10
2005,11,03,04,24,16.10
2005,11,03,04,25,19.30
2005,11,03,04,26,17.70
2005,11,03,04,27,24.20
2005,11,03,04,28,17.70
2005,11,03,04,29,19.30
2005,11,03,04,30,19.30
2005,11,03,04,31,25.70
2005,11,03,04,32,24.20
2005,11,03,04,33,20.90
2005,11,03,04,34,25.70
2005,11,03,04,35,29.00
2005,11,03,04,36,27.40
2005,11,03,04,37,27.40
2005,11,03,04,38,24.20
2005,11,03,04,39,29.00
2005,11,03,04,40,25.70
2005,11,03,04,41,30.60
2005,11,03,04,42,25.70
2005,11,03,04,43,24.20
2005,11,03,04,44,40.20
2005,11,03,04,45,32.20
2005,11,03,04,46,27.40
2005,11,03,04,47,32.20
2005,11,03,04,48,29.00
2005,11,03,04,49,29.00
2005,11,03,04,50,32.20
2005,11,03,04,51,27.40
2005,11,03,04,52,20.90
2005,11,03,04,53,30.60
2005,11,03,04,54,25.70
2005,11,03,04,55,25.70
2005,11,03,04,56,16.10
2005,11,03,04,57,20.90
2005,11,03,04,58,25.70
2005,11,03,04,59,25.70
2005,11,03,05,00,24.20
2005,11,03,05,01,24.20
2005,11,03,05,02,30.60
2005,11,03,05,03,25.70
2005,11,03,05,04,27.40
2005,11,03,05,05,20.90
2005,11,03,05,06,16.10
2005,11,03,05,07,17.70
2005,11,03,05,08,20.90
2005,11,03,05,09,12.90
2005,11,03,05,10,6.40
2005,11,03,05,11,27.40
2005,11,03,05,12,27.40
2005,11,03,05,13,29.00
2005,11,03,05,14,30.60
2005,11,03,05,15,41.80
2005,11,03,05,16,32.20
2005,11,03,05,17,41.80
2005,11,03,05,18,29.00
2005,11,03,05,19,24.20
2005,11,03,05,20,41.80
2005,11,03,05,21,32.20
2005,11,03,05,22,30.60
2005,11,03,05,23,40.20
2005,11,03,05,24,38.60
2005,11,03,05,25,33.80
2005,11,03,05,26,30.60
2005,11,03,05,27,37.00
2005,11,03,05,28,41.80
2005,11,03,05,29,40.20
2005,11,03,05,30,45.10
2005,11,03,05,31,48.30
2005,11,03,05,32,41.80
2005,11,03,05,33,35.40
2005,11,03,05,34,37.00
2005,11,03,05,35,35.40
2005,11,03,05,36,35.40
2005,11,03,05,37,25.70
2005,11,03,05,38,29.00
2005,11,03,05,39,35.40
2005,11,03,05,40,48.30
2005,11,03,05,41,45.10
2005,11,03,05,42,30.60
2005,11,03,05,43,30.60
2005,11,03,05,44,32.20
2005,11,03,05,45,40.20
2005,11,03,05,46,46.70
2005,11,03,05,47,30.60
2005,11,03,05,48,48.30
2005,11,03,05,49,49.90
2005,11,03,05,50,41.80
2005,11,03,05,51,41.80
2005,11,03,05,52,37.00
2005,11,03,05,53,37.00
2005,11,03,05,54,22.50
2005,11,03,05,55,33.80
2005,11,03,05,56,53.10
2005,11,03,05,57,53.10
2005,11,03,05,58,37.00
2005,11,03,05,59,35.40
2005,11,03,06,00,48.30
2005,11,03,06,01,38.60
2005,11,03,06,02,45.10
2005,11,03,06,03,51.50
2005,11,03,06,04,49.90
2005,11,03,06,05,38.60
2005,11,03,06,06,48.30
2005,11,03,06,07,33.80
2005,11,03,06,08,32.20
2005,11,03,06,09,49.90
2005,11,03,06,10,53.10
2005,11,03,06,11,40.20
2005,11,03,06,12,45.10
2005,11,03,06,13,32.20
2005,11,03,06,14,38.60
2005,11,03,06,15,32.20
2005,11,03,06,16,46.70
2005,11,03,06,17,40.20
2005,11,03,06,18,41.80
2005,11,03,06,19,40.20
2005,11,03,06,20,38.60
2005,11,03,06,21,53.10
2005,11,03,06,22,45.10
2005,11,03,06,23,41.80
2005,11,03,06,24,41.80
2005,11,03,06,25,41.80
2005,11,03,06,26,41.80
2005,11,03,06,27,32.20
2005,11,03,06,28,41.80
2005,11,03,06,29,45.10
2005,11,03,06,30,41.80
2005,11,03,06,31,38.60
2005,11,03,06,32,43.50
2005,11,03,06,33,49.90
2005,11,03,06,34,59.50
2005,11,03,06,35,40.20
2005,11,03,06,36,48.30
2005,11,03,06,37,49.90
2005,11,03,06,38,37.00
2005,11,03,06,39,33.80
2005,11,03,06,40,37.00
2005,11,03,06,41,43.50
2005,11,03,06,42,41.80
2005,11,03,06,43,38.60
2005,11,03,06,44,46.70
2005,11,03,06,45,46.70
2005,11,03,06,46,40.20
2005,11,03,06,47,45.10
2005,11,03,06,48,40.20
2005,11,03,06,49,53.10
2005,11,03,06,50,61.20
2005,11,03,06,51,49.90
2005,11,03,06,52,37.00
2005,11,03,06,53,33.80
2005,11,03,06,54,32.20
2005,11,03,06,55,38.60
2005,11,03,06,56,37.00
2005,11,03,06,57,24.20
2005,11,03,06,58,48.30
2005,11,03,06,59,48.30
2005,11,03,07,00,46.70
2005,11,03,07,01,38.60
2005,11,03,07,02,53.10
2005,11,03,07,03,45.10
2005,11,03,07,04,49.90
2005,11,03,07,05,38.60
2005,11,03,07,06,51.50
2005,11,03,07,07,54.70
2005,11,03,07,08,53.10
2005,11,03,07,09,40.20
2005,11,03,07,10,54.70
2005,11,03,07,11,61.20
2005,11,03,07,12,45.10
2005,11,03,07,13,56.30
2005,11,03,07,14,33.80
2005,11,03,07,15,48.30
2005,11,03,07,16,54.70
2005,11,03,07,17,51.50
2005,11,03,07,18,54.70
2005,11,03,07,19,54.70
2005,11,03,07,20,45.10
2005,11,03,07,21,56.30
2005,11,03,07,22,51.50
2005,11,03,07,23,57.90
2005,11,03,07,24,56.30
2005,11,03,07,25,61.20
2005,11,03,07,26,61.20
2005,11,03,07,27,66.00
2005,11,03,07,28,56.30
2005,11,03,07,29,70.80
2005,11,03,07,30,67.60
2005,11,03,07,31,45.10
2005,11,03,07,32,61.20
2005,11,03,07,33,59.50
2005,11,03,07,34,51.50
2005,11,03,07,35,45.10
2005,11,03,07,36,74.00
2005,11,03,07,37,64.40
2005,11,03,07,38,51.50
2005,11,03,07,39,74.20
2005,11,03,07,40,58.00
2005,11,03,07,41,58.00
2005,11,03,07,42,51.50
2005,11,03,07,43,64.40
2005,11,03,07,44,64.40
2005,11,03,07,45,61.20
2005,11,03,07,46,64.40
2005,11,03,07,47,62.60
2005,11,03,07,48,46.80
2005,11,03,07,49,58.00
2005,11,03,07,50,56.20
2005,11,03,07,51,50.00
2005,11,03,07,52,69.10
2005,11,03,07,53,62.60
2005,11,03,07,54,69.10
2005,11,03,07,55,62.60
2005,11,03,07,56,83.50
2005,11,03,07,57,54.70
2005,11,03,07,58,54.70
2005,11,03,07,59,58.00
2005,11,03,08,00,48.20
2005,11,03,08,01,51.50
2005,11,03,08,02,54.70
2005,11,03,08,03,58.00
2005,11,03,08,04,62.60
2005,11,03,08,05,56.20
2005,11,03,08,06,53.30
2005,11,03,08,07,58.00
2005,11,03,08,08,53.30
2005,11,03,08,09,46.80
2005,11,03,08,10,51.50
2005,11,03,08,11,46.80
2005,11,03,08,12,48.20
2005,11,03,08,13,53.30
2005,11,03,08,14,61.20
2005,11,03,08,15,58.00
2005,11,03,08,16,54.70
2005,11,03,08,17,77.00
2005,11,03,08,18,64.40
2005,11,03,08,19,67.70
2005,11,03,08,20,67.70
2005,11,03,08,21,70.90
2005,11,03,08,22,46.80
2005,11,03,08,23,61.20
2005,11,03,08,24,64.40
2005,11,03,08,25,64.40
2005,11,03,08,26,70.90
2005,11,03,08,27,74.20
2005,11,03,08,28,56.20
2005,11,03,08,29,65.90
2005,11,03,08,30,61.20
2005,11,03,08,31,54.70
2005,11,03,08,32,54.70
2005,11,03,08,33,61.20
2005,11,03,08,34,61.20
2005,11,03,08,35,40.30
2005,11,03,08,36,65.90
2005,11,03,08,37,72.40
2005,11,03,08,38,62.60
2005,11,03,08,39,61.20
2005,11,03,08,40,41.80
2005,11,03,08,41,56.20
2005,11,03,08,42,58.00
2005,11,03,08,43,59.40
2005,11,03,08,44,53.30
2005,11,03,08,45,53.30
2005,11,03,08,46,50.00
2005,11,03,08,47,54.70
2005,11,03,08,48,53.30
2005,11,03,08,49,53.30
2005,11,03,08,50,56.20
2005,11,03,08,51,53.30
2005,11,03,08,52,58.00
2005,11,03,08,53,59.40
2005,11,03,08,54,61.20
2005,11,03,08,55,51.50
2005,11,03,08,56,61.20
2005,11,03,08,57,48.20
2005,11,03,08,58,51.50
2005,11,03,08,59,56.20
2005,11,03,09,00,64.40
2005,11,03,09,01,74.20
2005,11,03,09,02,53.30
2005,11,03,09,03,62.60
2005,11,03,09,04,61.20
2005,11,03,09,05,59.40
2005,11,03,09,06,53.30
2005,11,03,09,07,51.50
2005,11,03,09,08,56.20
2005,11,03,09,09,62.60
2005,11,03,09,10,54.70
2005,11,03,09,11,51.50
2005,11,03,09,12,59.40
2005,11,03,09,13,64.40
2005,11,03,09,14,51.50
2005,11,03,09,15,62.60
2005,11,03,09,16,58.00
2005,11,03,09,17,53.30
2005,11,03,09,18,58.00
2005,11,03,09,19,53.30
2005,11,03,09,20,51.50
2005,11,03,09,21,59.40
2005,11,03,09,22,53.30
2005,11,03,09,23,53.30
2005,11,03,09,24,50.00
2005,11,03,09,25,53.30
2005,11,03,09,26,62.60
2005,11,03,09,27,51.50
2005,11,03,09,28,74.00
2005,11,03,09,29,54.70
2005,11,03,09,30,53.10
2005,11,03,09,31,53.10
2005,11,03,09,32,46.70
2005,11,03,09,33,62.70
2005,11,03,09,34,57.90
2005,11,03,09,35,40.20
2005,11,03,09,36,40.20
2005,11,03,09,37,72.40
2005,11,03,09,38,61.20
2005,11,03,09,39,43.50
2005,11,03,09,40,43.50
2005,11,03,09,41,43.50
2005,11,03,09,42,48.30
2005,11,03,09,43,56.30
2005,11,03,09,44,38.60
2005,11,03,09,45,49.90
2005,11,03,09,46,41.80
2005,11,03,09,47,48.30
2005,11,03,09,48,56.30
2005,11,03,09,49,77.30
2005,11,03,09,50,54.70
2005,11,03,09,51,61.20
2005,11,03,09,52,41.80
2005,11,03,09,53,46.70
2005,11,03,09,54,53.10
2005,11,03,09,55,40.20
2005,11,03,09,56,56.30
2005,11,03,09,57,59.50
2005,11,03,09,58,69.20
2005,11,03,09,59,46.70
2005,11,03,10,00,41.80
2005,11,03,10,01,49.90
2005,11,03,10,02,51.50
2005,11,03,10,03,49.90
2005,11,03,10,04,38.60
2005,11,03,10,05,46.70
2005,11,03,10,06,53.10
2005,11,03,10,07,41.80
2005,11,03,10,08,46.70
2005,11,03,10,09,57.90
2005,11,03,10,10,46.70
2005,11,03,10,11,51.50
2005,11,03,10,12,41.80
2005,11,03,10,13,53.10
2005,11,03,10,14,51.50
2005,11,03,10,15,45.10
2005,11,03,10,16,46.70
2005,11,03,10,17,46.70
2005,11,03,10,18,53.10
2005,11,03,10,19,53.10
2005,11,03,10,20,54.70
2005,11,03,10,21,35.40
2005,11,03,10,22,51.50
2005,11,03,10,23,61.20
2005,11,03,10,24,43.50
2005,11,03,10,25,57.90
2005,11,03,10,26,57.90
2005,11,03,10,27,53.10
2005,11,03,10,28,54.70
2005,11,03,10,29,35.40
2005,11,03,10,30,43.50
2005,11,03,10,31,51.50
2005,11,03,10,32,66.00
2005,11,03,10,33,35.40
2005,11,03,10,34,37.00
2005,11,03,10,35,53.10
2005,11,03,10,36,32.20
2005,11,03,10,37,32.20
2005,11,03,10,38,32.20
2005,11,03,10,39,49.90
2005,11,03,10,40,49.90
2005,11,03,10,41,53.10
2005,11,03,10,42,43.50
2005,11,03,10,43,49.90
2005,11,03,10,44,46.70
2005,11,03,10,45,48.30
2005,11,03,10,46,46.70
2005,11,03,10,47,41.80
2005,11,03,10,48,62.70
2005,11,03,10,49,43.50
2005,11,03,10,50,40.20
2005,11,03,10,51,41.80
2005,11,03,10,52,43.50
2005,11,03,10,53,54.70
2005,11,03,10,54,51.50
2005,11,03,10,55,54.70
2005,11,03,10,56,37.00
2005,11,03,10,57,49.90
2005,11,03,10,58,57.90
2005,11,03,10,59,38.60
2005,11,03,11,00,46.70
2005,11,03,11,01,35.40
2005,11,03,11,02,49.90
2005,11,03,11,03,48.30
2005,11,03,11,04,35.40
2005,11,03,11,05,40.20
2005,11,03,11,06,43.50
2005,11,03,11,07,40.20
2005,11,03,11,08,49.90
2005,11,03,11,09,49.90
2005,11,03,11,10,45.10
2005,11,03,11,11,32.20
2005,11,03,11,12,35.40
2005,11,03,11,13,49.90
2005,11,03,11,14,53.10
2005,11,03,11,15,38.60
2005,11,03,11,16,53.10
2005,11,03,11,17,40.20
2005,11,03,11,18,38.60
2005,11,03,11,19,38.60
2005,11,03,11,20,30.60
2005,11,03,11,21,30.60
2005,11,03,11,22,45.10
2005,11,03,11,23,41.80
2005,11,03,11,24,37.00
2005,11,03,11,25,35.40
2005,11,03,11,26,51.50
2005,11,03,11,27,53.10
2005,11,03,11,28,45.10
2005,11,03,11,29,32.20
2005,11,03,11,30,49.90
2005,11,03,11,31,54.70
2005,11,03,11,32,48.30
2005,11,03,11,38,22.50
2005,11,03,11,39,17.70
2005,11,03,11,40,41.80
2005,11,03,11,41,53.10
2005,11,03,11,42,56.30
2005,11,03,11,43,48.30
2005,11,03,11,44,37.00
2005,11,03,11,45,20.90
2005,11,03,11,46,29.00
2005,11,03,11,47,53.10
2005,11,03,11,48,64.40
2005,11,03,11,49,37.00
2005,11,03,11,50,38.60
2005,11,03,11,51,35.40
2005,11,03,11,52,33.80
2005,11,03,11,53,33.80
2005,11,03,11,54,33.80
2005,11,03,11,55,45.10
2005,11,03,11,56,43.50
2005,11,03,11,57,41.80
2005,11,03,11,58,38.60
2005,11,03,11,59,43.50
2005,11,03,12,00,46.70
2005,11,03,12,01,40.20
2005,11,03,12,02,38.60
2005,11,03,12,03,46.70
2005,11,03,12,04,38.60
2005,11,03,12,05,35.40
2005,11,03,12,06,51.50
2005,11,03,12,07,48.30
2005,11,03,12,08,45.10
2005,11,03,12,09,48.30
2005,11,03,12,10,32.20
2005,11,03,12,11,30.60
2005,11,03,12,12,40.20
2005,11,03,12,13,41.80
2005,11,03,12,14,51.50
2005,11,03,12,15,33.80
2005,11,03,12,16,30.60
2005,11,03,12,17,33.80
2005,11,03,12,18,48.30
2005,11,03,12,19,46.70
2005,11,03,12,20,45.10
2005,11,03,12,21,45.10
2005,11,03,12,22,49.90
2005,11,03,12,23,32.20
2005,11,03,12,24,29.00
2005,11,03,12,25,38.60
2005,11,03,12,26,41.80
2005,11,03,12,27,38.60
2005,11,03,12,28,37.00
2005,11,03,12,29,22.50
2005,11,03,12,30,22.50
2005,11,03,12,31,30.60
2005,11,03,12,32,45.10
2005,11,03,12,33,40.20
2005,11,03,12,34,40.20
2005,11,03,12,35,33.80
2005,11,03,12,36,29.00
2005,11,03,12,37,37.00
2005,11,03,12,38,35.40
2005,11,03,12,39,37.00
2005,11,03,12,40,38.60
2005,11,03,12,41,33.80
2005,11,03,12,42,32.20
2005,11,03,12,43,27.40
2005,11,03,12,44,33.80
2005,11,03,12,45,24.20
2005,11,03,12,46,30.60
2005,11,03,12,47,20.90
2005,11,03,12,48,19.30
2005,11,03,12,49,32.20
2005,11,03,12,50,32.20
2005,11,03,12,51,37.00
2005,11,03,12,52,33.80
2005,11,03,12,53,25.70
2005,11,03,12,54,32.20
2005,11,03,12,55,27.40
2005,11,03,12,56,29.00
2005,11,03,12,57,17.70
2005,11,03,12,58,20.90
2005,11,03,12,59,22.50
2005,11,03,13,00,25.70
2005,11,03,13,01,29.00
2005,11,03,13,02,37.00
2005,11,03,13,03,29.00
2005,11,03,13,04,37.00
2005,11,03,13,05,22.50
2005,11,03,13,06,22.50
2005,11,03,13,07,20.90
2005,11,03,13,08,25.70
2005,11,03,13,09,27.40
2005,11,03,13,10,19.30
2005,11,03,13,11,24.20
2005,11,03,13,12,33.80
2005,11,03,13,13,27.40
2005,11,03,13,14,29.00
2005,11,03,13,15,19.30
2005,11,03,13,16,24.20
2005,11,03,13,17,19.30
2005,11,03,13,18,22.50
2005,11,03,13,19,25.70
2005,11,03,13,20,22.50
2005,11,03,13,21,19.30
2005,11,03,13,22,16.10
2005,11,03,13,23,16.10
2005,11,03,13,24,25.70
2005,11,03,13,25,22.50
2005,11,03,13,26,14.50
2005,11,03,13,27,22.50
2005,11,03,13,28,19.30
2005,11,03,13,29,16.10
2005,11,03,13,30,19.30
2005,11,03,13,31,25.70
2005,11,03,13,32,22.50
2005,11,03,13,33,20.90
2005,11,03,13,34,20.90
2005,11,03,13,35,30.60
2005,11,03,13,36,27.40
2005,11,03,13,37,24.20
2005,11,03,13,38,24.20
2005,11,03,13,39,24.20
2005,11,03,13,40,30.60
2005,11,03,13,41,19.30
2005,11,03,13,42,20.90
2005,11,03,13,43,22.50
2005,11,03,13,44,16.10
2005,11,03,13,45,17.70
2005,11,03,13,46,19.30
2005,11,03,13,47,19.30
2005,11,03,13,48,19.30
2005,11,03,13,49,19.30
2005,11,03,13,50,14.50
2005,11,03,13,51,22.50
2005,11,03,13,52,17.70
2005,11,03,13,53,22.50
2005,11,03,13,54,19.30
2005,11,03,13,55,24.20
2005,11,03,13,56,19.30
2005,11,03,13,57,22.50
2005,11,03,13,58,22.50
2005,11,03,13,59,29.00
2005,11,03,14,00,30.60
2005,11,03,14,01,22.50
2005,11,03,14,02,19.30
2005,11,03,14,03,20.90
2005,11,03,14,04,22.50
2005,11,03,14,05,20.90
2005,11,03,14,06,24.20
2005,11,03,14,07,25.70
2005,11,03,14,08,25.70
2005,11,03,14,09,25.70
2005,11,03,14,10,20.90
2005,11,03,14,11,17.70
2005,11,03,14,12,16.10
2005,11,03,14,13,17.70
2005,11,03,14,14,19.30
2005,11,03,14,15,16.10
2005,11,03,14,16,16.10
2005,11,03,14,17,17.70
2005,11,03,14,18,17.70
2005,11,03,14,19,16.10
2005,11,03,14,20,16.10
2005,11,03,14,21,25.70
2005,11,03,14,22,17.70
2005,11,03,14,23,16.10
2005,11,03,14,24,27.40
2005,11,03,14,25,17.70
2005,11,03,14,26,16.10
2005,11,03,14,27,16.10
2005,11,03,14,28,14.50
2005,11,03,14,29,9.60
2005,11,03,14,30,19.30
2005,11,03,14,31,20.90
2005,11,03,14,32,20.90
2005,11,03,14,33,30.60
2005,11,03,14,34,25.70
2005,11,03,14,35,14.50
2005,11,03,14,36,17.70
2005,11,03,14,37,8.10
2005,11,03,14,38,11.30
2005,11,03,14,39,19.30
2005,11,03,14,40,17.70
2005,11,03,14,41,20.90
2005,11,03,14,42,19.30
2005,11,03,14,43,16.10
2005,11,03,14,44,20.90
2005,11,03,14,45,25.70
2005,11,03,14,46,11.30
2005,11,03,14,47,17.70
2005,11,03,14,48,12.90
2005,11,03,14,49,29.00
2005,11,03,14,50,17.70
2005,11,03,14,51,17.70
2005,11,03,14,52,14.50
2005,11,03,14,53,14.50
2005,11,03,14,54,16.10
2005,11,03,14,55,11.30
2005,11,03,14,56,16.10
2005,11,03,14,57,16.10
2005,11,03,14,58,12.90
2005,11,03,14,59,14.50
2005,11,03,15,00,11.30
2005,11,03,15,01,16.10
2005,11,03,15,02,3.20
2005,11,03,15,03,11.30
2005,11,03,15,04,17.70
2005,11,03,15,05,16.10
2005,11,03,15,06,14.50
2005,11,03,15,07,19.30
2005,11,03,15,08,27.40
2005,11,03,15,09,22.50
2005,11,03,15,10,27.40
2005,11,03,15,11,22.50
2005,11,03,15,12,14.50
2005,11,03,15,13,14.50
2005,11,03,15,14,6.40
2005,11,03,15,15,25.70
2005,11,03,15,16,25.70
2005,11,03,15,17,19.30
2005,11,03,15,18,9.60
2005,11,03,15,19,16.10
2005,11,03,15,20,27.40
2005,11,03,15,21,20.90
2005,11,03,15,22,11.30
2005,11,03,15,23,22.50
2005,11,03,15,24,14.50
2005,11,03,15,25,17.70
2005,11,03,15,26,19.30
2005,11,03,15,27,17.70
2005,11,03,15,28,9.60
2005,11,03,15,29,17.70
2005,11,03,15,30,27.40
2005,11,03,15,31,11.30
2005,11,03,15,32,25.70
2005,11,03,15,33,16.10
2005,11,03,15,34,24.20
2005,11,03,15,35,25.70
2005,11,03,15,36,33.80
2005,11,03,15,37,19.30
2005,11,03,15,38,12.90
2005,11,03,15,39,17.70
2005,11,03,15,40,19.30
2005,11,03,15,41,14.50
2005,11,03,15,42,11.30
2005,11,03,15,43,14.50
2005,11,03,15,44,25.70
2005,11,03,15,45,19.30
2005,11,03,15,46,14.50
2005,11,03,15,47,11.30
2005,11,03,15,48,17.70
2005,11,03,15,49,20.90
2005,11,03,15,50,27.40
2005,11,03,15,51,19.30
2005,11,03,15,52,19.30
2005,11,03,15,53,11.30
2005,11,03,15,54,27.40
2005,11,03,15,55,37.00
2005,11,03,15,56,32.20
2005,11,03,15,57,19.30
2005,11,03,15,58,20.90
2005,11,03,15,59,8.10
2005,11,03,16,00,20.90
2005,11,03,16,01,17.70
2005,11,03,16,02,22.50
2005,11,03,16,03,19.30
2005,11,03,16,04,25.70
2005,11,03,16,05,20.90
2005,11,03,16,06,19.30
2005,11,03,16,07,35.40
2005,11,03,16,08,17.70
2005,11,03,16,09,19.30
2005,11,03,16,10,16.10
2005,11,03,16,11,9.60
2005,11,03,16,12,20.90
2005,11,03,16,13,17.70
2005,11,03,16,14,33.80
2005,11,03,16,15,25.70
2005,11,03,16,16,27.40
2005,11,03,16,17,12.90
2005,11,03,16,18,9.60
2005,11,03,16,19,14.50
2005,11,03,16,20,19.30
2005,11,03,16,21,24.20
2005,11,03,16,22,22.50
2005,11,03,16,23,20.90
2005,11,03,16,24,16.10
2005,11,03,16,25,24.20
2005,11,03,16,26,25.70
2005,11,03,16,27,19.30
2005,11,03,16,28,22.50
2005,11,03,16,29,16.10
2005,11,03,16,30,16.10
2005,11,03,16,31,8.10
2005,11,03,16,32,16.10
2005,11,03,16,33,14.50
2005,11,03,16,34,19.30
2005,11,03,16,35,17.70
2005,11,03,16,36,17.70
2005,11,03,16,37,20.90
2005,11,03,16,38,20.90
2005,11,03,16,39,14.50
2005,11,03,16,40,20.90
2005,11,03,16,41,17.70
2005,11,03,16,42,9.60
2005,11,03,16,43,11.30
2005,11,03,16,44,16.10
2005,11,03,16,45,17.70
2005,11,03,16,46,14.50
2005,11,03,16,47,6.40
2005,11,03,16,48,6.40
2005,11,03,16,49,24.20
2005,11,03,16,50,14.50
2005,11,03,16,51,17.70
2005,11,03,16,52,17.70
2005,11,03,16,53,11.30
2005,11,03,16,54,16.10
2005,11,03,16,55,14.50
2005,11,03,16,56,11.30
2005,11,03,16,57,17.70
2005,11,03,16,58,12.90
2005,11,03,16,59,16.10
2005,11,03,17,00,9.60
2005,11,03,17,01,19.30
2005,11,03,17,02,11.30
2005,11,03,17,03,8.10
2005,11,03,17,04,8.10
2005,11,03,17,05,11.30
2005,11,03,17,06,25.70
2005,11,03,17,07,11.30
2005,11,03,17,08,11.30
2005,11,03,17,09,16.10
2005,11,03,17,10,12.90
2005,11,03,17,11,14.50
2005,11,03,17,12,24.20
2005,11,03,17,13,22.50
2005,11,03,17,14,11.30
2005,11,03,17,15,9.60
2005,11,03,17,16,3.20
2005,11,03,17,17,20.90
2005,11,03,17,18,17.70
2005,11,03,17,19,20.90
2005,11,03,17,20,8.10
2005,11,03,17,21,24.20
2005,11,03,17,22,16.10
2005,11,03,17,23,20.90
2005,11,03,17,24,19.30
2005,11,03,17,25,16.10
2005,11,03,17,26,16.10
2005,11,03,17,27,19.30
2005,11,03,17,28,24.20
2005,11,03,17,29,29.00
2005,11,03,17,30,14.50
2005,11,03,17,31,8.10
2005,11,03,17,32,16.10
2005,11,03,17,33,20.90
2005,11,03,17,34,20.90
2005,11,03,17,35,9.60
2005,11,03,17,36,9.60